�������l�o���
Date,Time,MP-1(��Sv/h),MP-2(��Sv/h),MP-3(��Sv/h),MP-4(��Sv/h),MP-5(��Sv/h),MP-6(��Sv/h),MP-7(��Sv/h),����,����(m/s),���J
2016/11/24,00:00,0.398,0.234,0.411,0.372,0.358,0.192,0.165,�k��,7.5,��
2016/11/24,00:10,0.401,0.233,0.409,0.373,0.358,0.194,0.165,�k��,8.1,��
2016/11/24,00:20,0.401,0.232,0.407,0.372,0.358,0.192,0.164,�k�k��,7.8,��
2016/11/24,00:30,0.399,0.232,0.407,0.372,0.359,0.193,0.165,�k��,7.6,��
2016/11/24,00:40,0.399,0.231,0.410,0.373,0.357,0.192,0.165,�k��,8.0,��
2016/11/24,00:50,0.401,0.232,0.408,0.373,0.358,0.193,0.165,�k��,8.2,��
2016/11/24,01:00,0.399,0.234,0.406,0.372,0.360,0.192,0.165,�k��,7.5,��
2016/11/24,01:10,0.399,0.233,0.408,0.374,0.359,0.192,0.166,�k�k��,7.5,��
2016/11/24,01:20,0.400,0.233,0.409,0.373,0.357,0.192,0.165,�k�k��,6.6,��
2016/11/24,01:30,0.400,0.233,0.409,0.372,0.359,0.192,0.166,�k�k��,6.4,��
2016/11/24,01:40,0.401,0.233,0.407,0.374,0.359,0.192,0.165,�k�k��,7.3,��
2016/11/24,01:50,0.398,0.234,0.409,0.375,0.360,0.192,0.165,�k�k��,6.8,��
2016/11/24,02:00,0.398,0.233,0.409,0.372,0.360,0.193,0.165,�k��,5.8,��
2016/11/24,02:10,0.402,0.234,0.407,0.373,0.358,0.192,0.165,�k�k��,5.5,��
2016/11/24,02:20,0.398,0.233,0.408,0.375,0.359,0.193,0.166,�k�k��,4.6,��
2016/11/24,02:30,0.400,0.233,0.411,0.373,0.359,0.193,0.165,�k�k��,3.9,��
2016/11/24,02:40,0.399,0.234,0.408,0.372,0.358,0.193,0.165,�k�k��,3.7,��
2016/11/24,02:50,0.402,0.233,0.409,0.374,0.358,0.193,0.164,�k,3.9,��
2016/11/24,03:00,0.400,0.232,0.410,0.373,0.360,0.194,0.164,�k,3.6,��
2016/11/24,03:10,0.400,0.233,0.409,0.373,0.358,0.192,0.166,�k,3.3,��
2016/11/24,03:20,0.399,0.233,0.409,0.372,0.359,0.193,0.165,�k,2.8,��
2016/11/24,03:30,0.399,0.232,0.408,0.374,0.359,0.193,0.165,�k,3.6,��
2016/11/24,03:40,0.399,0.233,0.410,0.375,0.358,0.192,0.165,�k�k��,2.6,��
2016/11/24,03:50,0.401,0.233,0.407,0.373,0.358,0.192,0.167,�k,5.1,��
2016/11/24,04:00,0.400,0.234,0.408,0.375,0.358,0.192,0.165,�k�k��,5.5,��
2016/11/24,04:10,0.399,0.233,0.409,0.374,0.359,0.193,0.165,�k,6.1,��
2016/11/24,04:20,0.399,0.233,0.411,0.372,0.360,0.193,0.165,�k�k��,5.6,��
2016/11/24,04:30,0.400,0.233,0.410,0.374,0.359,0.193,0.164,�k,6.9,��
2016/11/24,04:40,0.400,0.233,0.409,0.373,0.360,0.193,0.164,�k�k��,7.1,��
2016/11/24,04:50,0.400,0.234,0.410,0.374,0.357,0.193,0.166,�k�k��,6.7,��
2016/11/24,05:00,0.399,0.233,0.411,0.373,0.358,0.193,0.165,�k�k��,7.0,��
2016/11/24,05:10,0.400,0.232,0.409,0.374,0.358,0.194,0.165,�k�k��,7.3,��
2016/11/24,05:20,0.401,0.233,0.410,0.374,0.360,0.194,0.165,�k�k��,6.9,��
2016/11/24,05:30,0.399,0.233,0.411,0.373,0.360,0.193,0.164,�k�k��,6.6,��
2016/11/24,05:40,0.401,0.233,0.410,0.373,0.357,0.193,0.165,�k�k��,6.3,��
2016/11/24,05:50,0.400,0.234,0.408,0.375,0.359,0.193,0.166,�k�k��,5.5,��
2016/11/24,06:00,0.399,0.232,0.412,0.373,0.359,0.193,0.165,�k�k��,5.3,��
2016/11/24,06:10,0.399,0.234,0.410,0.372,0.359,0.193,0.165,�k�k��,6.4,��
2016/11/24,06:20,0.401,0.233,0.408,0.374,0.357,0.193,0.164,�k�k��,5.2,��
2016/11/24,06:30,0.399,0.233,0.408,0.374,0.357,0.192,0.164,�k�k��,4.8,��
2016/11/24,06:40,0.401,0.233,0.410,0.373,0.360,0.193,0.166,�k�k��,6.3,��
2016/11/24,06:50,0.401,0.233,0.410,0.374,0.358,0.193,0.165,�k,6.5,��
2016/11/24,07:00,0.400,0.233,0.407,0.375,0.359,0.193,0.165,�k,5.6,�L
2016/11/24,07:10,0.402,0.234,0.410,0.373,0.359,0.193,0.166,�k�k��,6.4,�L
2016/11/24,07:20,0.402,0.235,0.411,0.375,0.360,0.195,0.168,�k,7.2,�L
2016/11/24,07:30,0.404,0.235,0.412,0.377,0.362,0.197,0.168,�k�k��,7.1,�L
2016/11/24,07:40,0.403,0.237,0.412,0.376,0.363,0.198,0.169,�k�k��,5.6,�L
2016/11/24,07:50,0.403,0.237,0.412,0.376,0.361,0.197,0.169,�k�k��,6.2,�L
2016/11/24,08:00,0.404,0.238,0.413,0.375,0.361,0.200,0.169,�k�k��,6.4,�L
2016/11/24,08:10,0.405,0.238,0.412,0.376,0.361,0.198,0.170,�k�k��,7.4,�L
2016/11/24,08:20,0.404,0.238,0.409,0.375,0.360,0.199,0.170,�k�k��,6.4,�L
2016/11/24,08:30,0.402,0.238,0.410,0.375,0.360,0.198,0.170,�k�k��,6.9,�L
2016/11/24,08:40,0.401,0.238,0.410,0.374,0.359,0.199,0.169,�k,7.2,�L
2016/11/24,08:50,0.403,0.238,0.412,0.374,0.360,0.198,0.170,�k,8.2,�L
2016/11/24,09:00,0.400,0.237,0.409,0.372,0.359,0.198,0.171,�k�k��,7.5,�L
2016/11/24,09:10,0.399,0.238,0.408,0.372,0.359,0.199,0.170,�k�k��,7.8,�L
2016/11/24,09:20,0.399,0.238,0.406,0.370,0.358,0.198,0.170,�k�k��,7.8,�L
2016/11/24,09:30,0.397,0.237,0.406,0.371,0.356,0.198,0.170,�k,7.8,�L
2016/11/24,09:40,0.399,0.237,0.405,0.370,0.356,0.197,0.168,�k�k��,7.3,�L
2016/11/24,09:50,0.398,0.236,0.404,0.369,0.356,0.196,0.170,�k�k��,7.3,�L
2016/11/24,10:00,0.397,0.235,0.402,0.368,0.354,0.196,0.168,�k,7.9,�L
2016/11/24,10:10,0.395,-,0.402,0.367,0.352,0.195,0.168,�k�k��,8.1,�L
2016/11/24,10:20,0.396,-,0.405,0.367,0.354,0.195,0.168,�k,8.7,�L
2016/11/24,10:30,0.396,-,0.403,0.366,0.352,0.195,0.167,�k,9.1,�L
2016/11/24,10:40,0.395,-,0.401,0.365,0.353,0.195,0.166,�k�k��,8.9,�L
2016/11/24,10:50,0.394,-,0.399,0.365,0.351,0.194,0.165,�k�k��,8.3,�L
2016/11/24,11:00,0.393,-,0.399,0.362,0.350,0.192,0.165,�k�k��,8.8,�L
2016/11/24,11:10,0.393,-,0.398,0.362,0.350,0.193,0.164,�k�k��,7.7,�L
2016/11/24,11:20,0.392,-,0.399,0.362,0.349,0.192,0.165,�k�k��,7.9,�L
2016/11/24,11:30,0.394,-,0.396,0.361,0.348,0.191,0.163,�k�k��,7.2,�L
2016/11/24,11:40,0.394,-,0.397,0.361,0.349,0.191,0.164,�k�k��,7.4,�L
2016/11/24,11:50,0.392,-,0.397,0.361,0.348,0.189,0.162,�k�k��,7.0,�L
2016/11/24,12:00,0.392,-,0.398,0.358,0.351,0.189,0.163,�k�k��,7.5,�L
2016/11/24,12:10,0.394,-,0.399,0.361,0.348,0.190,0.164,�k�k��,6.7,�L
2016/11/24,12:20,0.394,-,0.398,0.363,0.350,0.191,0.165,�k�k��,7.0,�L
2016/11/24,12:30,0.393,-,0.399,0.361,0.351,0.192,0.165,�k�k��,6.6,�L
2016/11/24,12:40,0.393,-,0.402,0.361,0.351,0.191,0.165,�k�k��,6.6,�L
2016/11/24,12:50,0.395,-,0.402,0.362,0.351,0.193,0.166,�k�k��,5.7,�L
2016/11/24,13:00,0.396,-,0.403,0.363,0.352,0.193,0.167,�k�k��,5.9,�L
2016/11/24,13:10,0.395,-,0.402,0.363,0.353,0.192,0.167,�k,5.8,�L
2016/11/24,13:20,0.394,-,0.401,0.363,0.353,0.193,0.166,�k,6.7,�L
2016/11/24,13:30,0.396,-,0.402,0.363,0.352,0.192,0.165,�k�k��,6.0,�L
2016/11/24,13:40,0.394,-,0.401,0.364,0.354,0.192,0.165,�k�k��,7.5,��
2016/11/24,13:50,0.393,-,0.400,0.363,0.353,0.190,0.165,�k�k��,6.0,��
2016/11/24,14:00,0.392,-,0.400,0.364,0.352,0.190,0.165,�k�k��,4.5,��
2016/11/24,14:10,0.391,-,0.401,0.362,0.352,0.191,0.163,�k�k��,4.7,��
2016/11/24,14:20,0.392,-,0.399,0.363,0.351,0.190,0.163,�k�k��,4.5,��
2016/11/24,14:30,0.391,-,0.400,0.363,0.353,0.188,0.161,�k�k��,4.7,��
2016/11/24,14:40,0.391,-,0.400,0.362,0.352,0.189,0.162,�k�k��,5.0,��
2016/11/24,14:50,0.391,-,0.399,0.362,0.353,0.189,0.161,�k�k��,5.5,��
2016/11/24,15:00,0.391,-,0.398,0.364,0.353,0.188,0.161,�k�k��,5.1,��
2016/11/24,15:10,0.390,-,0.400,0.362,0.354,0.188,0.161,�k�k��,4.2,��
2016/11/24,15:20,0.390,0.227,0.400,0.365,0.353,0.188,0.161,�k�k��,3.9,��
2016/11/24,15:30,0.392,0.228,0.400,0.365,0.353,0.189,0.161,�k��,4.2,��
2016/11/24,15:40,0.390,0.228,0.398,0.363,0.355,0.189,0.161,�k�k��,5.3,��
2016/11/24,15:50,0.391,0.229,0.399,0.364,0.354,0.189,0.161,�k�k��,5.8,��
2016/11/24,16:00,0.391,0.228,0.400,0.365,0.354,0.189,0.161,�k�k��,6.3,��
2016/11/24,16:10,0.392,0.228,0.399,0.364,0.354,0.188,0.162,�k�k��,7.4,��
2016/11/24,16:20,0.392,0.228,0.399,0.364,0.354,0.188,0.161,�k�k��,7.6,��
2016/11/24,16:30,0.391,0.229,0.402,0.363,0.354,0.189,0.162,�k�k��,7.7,��
2016/11/24,16:40,0.392,0.229,0.400,0.365,0.355,0.189,0.161,�k�k��,7.8,��
2016/11/24,16:50,0.393,0.229,0.400,0.363,0.353,0.188,0.162,�k�k��,7.2,��
2016/11/24,17:00,0.392,0.229,0.400,0.365,0.355,0.188,0.161,�k�k��,6.1,��
2016/11/24,17:10,0.392,0.228,0.402,0.364,0.354,0.189,0.161,�k��,5.8,��
2016/11/24,17:20,0.393,0.229,0.400,0.365,0.355,0.187,0.161,�k�k��,5.6,��
2016/11/24,17:30,0.392,0.228,0.399,0.364,0.353,0.188,0.161,�k�k��,5.7,��
2016/11/24,17:40,0.392,0.228,0.401,0.366,0.354,0.189,0.161,�k�k��,5.8,��
2016/11/24,17:50,0.391,0.229,0.402,0.367,0.354,0.188,0.162,�k��,5.8,��
2016/11/24,18:00,0.393,0.228,0.401,0.365,0.353,0.189,0.161,�k�k��,5.1,��
2016/11/24,18:10,0.392,0.228,0.401,0.365,0.354,0.188,0.161,�k�k��,5.2,��
2016/11/24,18:20,0.391,0.228,0.403,0.365,0.355,0.190,0.162,�k�k��,5.0,��
2016/11/24,18:30,0.392,0.229,0.401,0.366,0.355,0.189,0.163,�k�k��,4.5,��
2016/11/24,18:40,0.395,0.229,0.400,0.366,0.355,0.188,0.162,�k�k��,3.6,��
2016/11/24,18:50,0.392,0.228,0.400,0.365,0.355,0.189,0.161,�k�k��,4.2,��
2016/11/24,19:00,0.391,0.229,0.402,0.367,0.355,0.189,0.162,�k�k��,4.8,��
2016/11/24,19:10,0.392,0.229,0.401,0.367,0.355,0.189,0.162,�k�k��,5.4,��
2016/11/24,19:20,0.392,0.229,0.402,0.365,0.354,0.190,0.161,�k�k��,5.7,��
2016/11/24,19:30,0.392,0.229,0.400,0.365,0.354,0.190,0.162,�k�k��,6.2,��
2016/11/24,19:40,0.392,0.228,0.401,0.366,0.356,0.189,0.162,�k�k��,6.1,��
2016/11/24,19:50,0.392,0.229,0.403,0.367,0.354,0.190,0.162,�k�k��,6.6,��
2016/11/24,20:00,0.393,0.230,0.399,0.366,0.355,0.190,0.161,�k�k��,6.7,��
2016/11/24,20:10,0.393,0.229,0.401,0.366,0.357,0.189,0.162,�k�k��,6.7,��
2016/11/24,20:20,0.392,0.229,0.401,0.368,0.356,0.189,0.162,�k�k��,7.0,��
2016/11/24,20:30,0.393,0.230,0.404,0.368,0.356,0.189,0.162,�k�k��,7.0,��
2016/11/24,20:40,0.394,0.228,0.403,0.366,0.355,0.190,0.162,�k�k��,6.6,��
2016/11/24,20:50,0.394,0.228,0.402,0.365,0.355,0.190,0.162,�k�k��,5.8,��
2016/11/24,21:00,0.392,0.229,0.400,0.367,0.355,0.189,0.161,�k�k��,5.9,��
2016/11/24,21:10,0.393,0.229,0.403,0.369,0.355,0.190,0.162,�k�k��,5.9,��
2016/11/24,21:20,0.392,0.231,0.403,0.367,0.355,0.189,0.162,�k�k��,6.0,��
2016/11/24,21:30,0.394,0.231,0.403,0.368,0.355,0.190,0.162,�k�k��,5.3,��
2016/11/24,21:40,0.395,0.230,0.403,0.367,0.354,0.189,0.162,�k�k��,5.3,��
2016/11/24,21:50,0.393,0.229,0.403,0.367,0.355,0.190,0.162,�k�k��,5.6,��
2016/11/24,22:00,0.393,0.229,0.403,0.368,0.355,0.190,0.162,�k�k��,6.0,��
2016/11/24,22:10,0.395,0.231,0.403,0.367,0.353,0.189,0.162,�k�k��,6.2,��
2016/11/24,22:20,0.394,0.229,0.402,0.367,0.354,0.190,0.162,�k�k��,6.4,��
2016/11/24,22:30,0.393,0.230,0.402,0.369,0.356,0.190,0.162,�k�k��,6.4,��
2016/11/24,22:40,0.394,0.230,0.402,0.368,0.356,0.190,0.163,�k�k��,6.7,��
2016/11/24,22:50,0.393,0.231,0.403,0.367,0.356,0.189,0.162,�k,7.1,��
2016/11/24,23:00,0.392,0.228,0.403,0.368,0.356,0.190,0.162,�k,7.3,��
2016/11/24,23:10,0.392,0.230,0.402,0.369,0.355,0.190,0.164,�k�k��,6.4,��
2016/11/24,23:20,0.393,0.229,0.403,0.368,0.355,0.190,0.162,�k�k��,6.4,��
2016/11/24,23:30,0.395,0.231,0.402,0.368,0.355,0.189,0.162,�k�k��,7.3,��
2016/11/24,23:40,0.395,0.230,0.404,0.367,0.355,0.190,0.162,�k,7.8,��
2016/11/24,23:50,0.394,0.230,0.402,0.367,0.356,0.190,0.163,�k�k��,6.3,��
